Location: Warszawa
(52.2500°N, 21.0000°E)
Time: 19:29:48
(UTC+02:00)

Vanguard 2 - Pass Details

Date: 02 February 2023
Orbit: 553 x 2927 km, 32.9° (Epoch: 27 March)

Event Time Altitude Azimuth Distance (km) Brightness Sun altitude
Exits shadow 04:10:29 18° 213° (SSW) 4,690 11.1 -28.4°
Drops below altitude 10° 04:17:26 10° 184° (S) 4,917 11.5 -27.3°
Sets 04:22:30 0° 167° (SSE) 5,516 12.0 -26.6°
